Content
SEND FEEDBACK

Daily
Averages
Monthly
Summary
Canada

BIBLE HILL, NOVA SCOTIA


Home > North America > Canada > Nova Scotia
Elevation: 131 feet     Latitude: 45 22N     Longitude: 063 16W

WEATHER
 
SELECT A DAY
Number of Records: 97,284;   Date Range: 6/19/04 - 8/27/14
 
SHARE

PRINT THIS DATA

[ ← Previous Day ]
WEATHER ALMANAC - MARCH 20, 2013
[ Next Day → ]
[ °C ]   °F
Weather ElementAverageHighLow
Temperature26.8 °F33.4 °F (2:00 pm)20 °F (3:00 am)
Dewpoint22.5 °F31.3 °F (1:00 pm)12.6 °F (1:00 am)
Humidity83.7 %96 % (12:00 pm)60 % (9:00 pm)
Barometer29.51 in29.89 in (1:00 am)29.24 in (1:00 pm)
Wind Speed17.5 mph27.6 mph (2:00 pm)
Wind Gust39.1 mph (2:00 pm)
Weather ElementAverage
Wind DirectionSSE (160.7 °)

Weather ElementTotal
Precipitation0.34 in
Heating Degree Days38.3 (Base 65)
Averaged from 27 records on March 20, 2013
WEATHER CONDITIONS BREAKOUT
WIND DIRECTION BREAKOUT
WEATHER BY HOUR - MARCH 20, 2013
[ °C ]   °F
Local TimeTemperatureDewpointHumidityBarometerVisibilityWind DirectionWind SpeedGust SpeedPrecipitationEventsConditions
1:00 AM20.3 °F12.6 °F72 %29.89 inEast (90°)13.8 mph
2:00 AM20.7 °F14.4 °F77 %29.83 inEast (90°)15.0 mph
3:00 AM20.0 °F18.0 °F87 %29.75 inEast (80°)16.1 mph
3:00 AM20.1 °F17.8 °F91 %29.75 inEast (80°)16.1 mph24.2 mph0.02 in
4:00 AM21.0 °F18.9 °F91 %29.69 inEast (90°)16.1 mph21.9 mph0.05 in
5:00 AM22.3 °F20.5 °F93 %29.62 inEast (80°)13.8 mph21.9 mph0.06 in
6:00 AM23.2 °F21.4 °F93 %29.56 inEast (90°)17.3 mph27.6 mph0.04 in
7:00 AM23.5 °F21.7 °F93 %29.49 inEast (90°)18.4 mph27.6 mph0.09 in
8:00 AM24.4 °F22.8 °F94 %29.47 inEast (100°)11.5 mph0.06 in
9:00 AM26.0 °F24.0 °F89 %29.41 inEast (100°)15.0 mph
9:00 AM25.7 °F24.1 °F94 %29.41 inEast (100°)15.0 mph20.7 mph0.02 in
10:00 AM28.6 °F25.3 °F88 %29.35 inESE (110°)19.6 mph28.8 mph
11:00 AM31.1 °F28.8 °F91 %29.30 inESE (120°)20.7 mph28.8 mph
12:00 PM31.5 °F30.4 °F96 %29.25 inSE (140°)13.8 mph
1:00 PM33.1 °F31.3 °F93 %29.24 inSouth (170°)11.5 mph
2:00 PM33.4 °F27.9 °F80 %29.28 inWSW (250°)27.6 mph39.1 mph
3:00 PM29.0 °F27.0 °F91 %29.36 inWSW (250°)25.3 mph
3:00 PM29.5 °F27.3 °F92 %29.36 inWSW (250°)25.3 mph34.5 mph
4:00 PM29.8 °F22.5 °F74 %29.41 inWSW (250°)23.0 mph35.7 mph
5:00 PM28.9 °F21.2 °F73 %29.46 inWSW (250°)19.6 mph25.3 mph
6:00 PM28.4 °F20.5 °F72 %29.49 inWSW (240°)15.0 mph21.9 mph
7:00 PM28.4 °F20.3 °F72 %29.52 inSW (230°)18.4 mph27.6 mph
8:00 PM28.6 °F20.7 °F72 %29.55 inSW (220°)16.1 mph24.2 mph
9:00 PM29.0 °F21.0 °F60 %29.59 inSW (230°)17.3 mph
9:00 PM29.3 °F20.7 °F70 %29.59 inSW (230°)17.3 mph27.6 mph
10:00 PM28.2 °F23.2 °F81 %29.61 inSSW (200°)17.3 mph25.3 mph
11:00 PM28.9 °F24.1 °F82 %29.62 inSSW (210°)16.1 mph23.0 mph
Hourly data recorded from CZDB, located miles away from Bible Hill, Nova Scotia







STORIES FROM OUR PARTNERS